CDT,Max TemperatureF,Mean TemperatureF,Min TemperatureF,Max Dew PointF,MeanDew PointF,Min DewpointF,Max Humidity, Mean Humidity, Min Humidity, Max Sea Level PressureIn, Mean Sea Level PressureIn, Min Sea Level PressureIn, Max VisibilityMiles, Mean VisibilityMiles, Min VisibilityMiles, Max Wind SpeedMPH, Mean Wind SpeedMPH, Max Gust SpeedMPH,PrecipitationIn, CloudCover, Events, WindDirDegrees
2013-9-1,79,70,61,68,62,56,95,73,47,29.98,29.88,29.77,10,10,5,18,7,28,0.01,1,Rain,312
2013-9-2,73,62,52,57,53,50,96,76,46,30.09,30.05,29.99,10,10,10,12,4,17,0.00,1,,343
2013-9-3,79,60,43,59,50,42,100,76,35,30.15,30.09,30.05,10,9,0,7,0,,0.00,2,Fog,252
2013-9-4,89,72,56,68,59,53,91,67,33,30.17,30.12,30.07,10,10,10,10,2,,0.00,0,,260
2013-9-5,88,76,64,70,64,60,91,70,40,30.22,30.18,30.14,10,10,10,6,1,,0.00,0,,111
2013-9-6,88,76,63,68,62,58,96,67,35,30.16,30.08,29.95,10,9,5,14,5,21,0.00,0,,159
2013-9-7,87,76,65,72,66,59,89,69,49,29.96,29.93,29.90,10,10,10,9,3,,0.00,0,,267
2013-9-8,77,73,69,70,67,66,93,86,74,30.01,29.94,29.89,10,9,5,14,6,21,0.00,4,,73
2013-9-9,98,82,67,71,64,57,97,67,26,29.88,29.83,29.78,10,6,0,21,8,32,0.00,2,Fog,173
2013-9-10,93,78,64,67,62,59,85,58,34,30.04,29.95,29.87,10,10,10,15,9,20,0.00,1,,227
2013-9-11,84,73,63,66,63,58,94,73,42,30.11,30.08,30.03,10,10,5,8,2,,0.41,3,Rain,267
2013-9-12,75,65,55,60,51,44,93,64,34,30.21,30.17,30.08,10,10,10,16,5,24,0.00,1,,339
2013-9-13,69,58,47,48,45,42,90,66,38,30.28,30.21,30.14,10,10,7,6,2,,0.00,0,,58
2013-9-14,74,58,43,53,44,40,90,61,30,30.14,30.05,29.91,10,10,5,16,5,20,0.01,1,Rain,165
2013-9-15,66,60,54,57,53,46,91,73,49,30.26,30.03,29.87,10,10,3,15,8,21,0.07,7,Rain,18
2013-9-16,65,56,48,53,50,46,95,84,56,30.39,30.32,30.26,10,10,10,9,4,,0.00,3,,74
2013-9-17,62,54,48,61,53,46,96,93,89,30.29,30.15,30.01,10,6,1,12,6,17,0.08,5,Rain,128
2013-9-18,87,74,62,69,66,61,97,78,51,30.01,29.87,29.77,10,7,1,20,10,25,0.48,5,Rain,165
2013-9-19,83,74,65,68,67,64,96,80,56,29.87,29.80,29.74,10,10,5,18,11,29,0.31,4,Rain,212
2013-9-20,65,56,46,62,50,43,91,78,60,29.99,29.94,29.88,10,10,10,18,11,24,0.02,5,,292
2013-9-21,68,54,41,49,44,39,94,72,39,30.04,29.98,29.92,10,10,10,10,3,,0.00,0,,299
2013-9-22,76,60,45,53,48,43,93,70,43,30.01,29.95,29.90,10,10,10,15,6,21,0.00,0,,130
2013-9-23,74,60,47,51,49,46,92,70,38,30.00,29.94,29.88,10,10,10,18,8,24,0.00,0,,128
2013-9-24,73,60,48,55,51,46,91,75,50,29.94,29.92,29.90,10,10,10,12,6,22,0.00,1,,92
2013-9-25,76,61,47,54,51,46,94,74,43,29.99,29.93,29.88,10,9,4,13,4,16,0.00,1,,92
2013-9-26,82,68,53,61,56,50,90,69,42,29.96,29.93,29.89,10,10,7,21,9,28,0.00,0,,134
2013-9-27,84,72,61,62,59,55,88,66,37,30.00,29.95,29.90,10,10,10,22,11,31,0.00,0,,142
2013-9-28,69,58,46,64,55,44,92,82,64,30.04,29.89,29.79,10,10,4,23,12,29,0.06,4,Rain,211
2013-9-29,73,57,41,48,43,39,92,63,31,30.07,30.01,29.93,10,10,10,17,6,23,0.00,0,,190
2013-9-30,76,62,49,53,48,44,90,65,31,29.94,29.83,29.74,10,10,10,20,10,30,0.00,0,,176